Oneill, NE

6:43 AM CST on February 20, 2017 (GMT -0600)
The O'Neill Municipal-Baker

Weather History for KONL - December, 2013

Change the Weather History Date:

Sunday, December 22, 2013

  Actual Average Record
Temperature  
Mean Temperature 10 °F -  
Max Temperature 16 °F 32 °F 62 °F (1972)
Min Temperature 2 °F 13 °F -32 °F (1989)
Degree Days  
Heating Degree Days 56    
Moisture  
Dew Point 3 °F    
Average Humidity 74    
Maximum Humidity 85    
Minimum Humidity 62    
Precipitation  
Precipitation 0.00 in - - ()
Sea Level Pressure  
Sea Level Pressure 30.14 in    
Wind  
Wind Speed 13 mph (NW)    
Max Wind Speed 20 mph    
Max Gust Speed 25 mph    
Visibility 10 miles    
Events Snow    
Averages and records for this station are not official NWS values.
T = Trace of Precipitation, MM = Missing Value Source: NWS Daily Summary

Daily Weather History Graph

Daily Weather History Graph

Search for Another Location

Airport or City:

Trip Planner

Search our weather history database for the weather conditions in past years. The results will help you decide how hot, cold, wet, or windy it might be!

Date:

Astronomy

Dec. 22, 2013 Rise Set
Actual Time 8:01 AM CST 5:05 PM CST
Civil Twilight 7:29 AM CST 5:37 PM CST
Nautical Twilight 6:54 AM CST 6:13 PM CST
Astronomical Twilight 6:19 AM CST 6:47 PM CST
Moon 10:25 PM CST (12/22) 10:53 AM CST (12/22)
Length of Visible Light 10h 08m
Length of Day
9h 03m
Waning Gibbous, 76% of the Moon is Illuminated
Dec 22
Waning Gibbous
Dec 25
Last Quarter
Jan 1
New
Jan 7
First Quarter
Jan 15
Full

Hourly Weather History & Observations

Time (CST) Temp. Windchill Dew Point Humidity Pressure Visibility Wind Dir Wind Speed Gust Speed Precip Events Conditions
12:15 AM 11.3 °F -2.9 °F 7.7 °F 85% 29.95 in 10.0 mi NNW 11.5 mph 17.3 mph N/A Snow Light Snow
12:35 AM 11.3 °F -2.9 °F 7.5 °F 85% 29.96 in 10.0 mi NNW 11.5 mph - N/A Snow Light Snow
12:55 AM 11.3 °F -3.6 °F 7.2 °F 83% 29.96 in 7.0 mi NNW 12.7 mph - N/A Snow Light Snow
1:15 AM 10.9 °F -4.1 °F 6.8 °F 83% 29.97 in 7.0 mi NW 12.7 mph - N/A Snow Light Snow
1:35 AM 10.8 °F -4.3 °F 6.1 °F 81% 29.98 in 10.0 mi NNW 12.7 mph - N/A Snow Light Snow
1:55 AM 10.4 °F -5.4 °F 6.4 °F 84% 29.98 in 10.0 mi NNW 13.8 mph - N/A Snow Light Snow
2:15 AM 10.4 °F -5.4 °F 6.1 °F 83% 29.99 in 5.0 mi NNW 13.8 mph - N/A Snow Light Snow
2:35 AM 10.0 °F -5.2 °F 5.5 °F 82% 30.00 in 10.0 mi NNW 12.7 mph - N/A Snow Light Snow
2:55 AM 10.0 °F -5.2 °F 5.7 °F 83% 30.00 in 7.0 mi NNW 12.7 mph - N/A Snow Light Snow
3:15 AM 10.0 °F -3.7 °F 5.9 °F 83% 30.00 in 7.0 mi NNW 10.4 mph - N/A Snow Light Snow
3:35 AM 10.2 °F -4.3 °F 5.7 °F 82% 30.01 in 10.0 mi NNW 11.5 mph - N/A Snow Light Snow
3:55 AM 10.0 °F -5.2 °F 5.0 °F 80% 30.02 in 10.0 mi NNW 12.7 mph - N/A   Overcast
4:15 AM 9.5 °F -4.4 °F 4.8 °F 81% 30.03 in 10.0 mi NW 10.4 mph - N/A Snow Light Snow
4:35 AM 9.3 °F -5.4 °F 4.5 °F 81% 30.03 in 10.0 mi NW 11.5 mph - N/A   Overcast
4:55 AM 8.8 °F -6.8 °F 3.4 °F 79% 30.03 in 10.0 mi NW 12.7 mph - N/A   Overcast
5:15 AM 8.2 °F -8.2 °F 2.7 °F 78% 30.04 in 10.0 mi NW 13.8 mph - N/A   Mostly Cloudy
5:35 AM 8.1 °F -6.2 °F 2.7 °F 79% 30.04 in 10.0 mi NW 10.4 mph - N/A   Mostly Cloudy
5:55 AM 7.3 °F -7.9 °F 1.9 °F 79% 30.04 in 10.0 mi NW 11.5 mph - N/A   Scattered Clouds
6:15 AM 6.6 °F -8.8 °F 1.2 °F 79% 30.04 in 10.0 mi NW 11.5 mph - N/A   Clear
6:35 AM 5.9 °F -8.0 °F 0.9 °F 80% 30.04 in 10.0 mi NW 9.2 mph - N/A Snow Light Snow
6:55 AM 5.9 °F -7.0 °F 0.9 °F 80% 30.06 in 10.0 mi NW 8.1 mph - N/A   Scattered Clouds
7:15 AM 5.9 °F -8.9 °F 0.5 °F 78% 30.06 in 10.0 mi NW 10.4 mph - N/A   Overcast
7:35 AM 6.8 °F -10.7 °F 1.4 °F 79% 30.07 in 10.0 mi NW 15.0 mph - N/A   Overcast
7:55 AM 6.8 °F -11.8 °F 0.9 °F 77% 30.07 in 10.0 mi NW 17.3 mph - N/A   Overcast
8:15 AM 6.1 °F -10.9 °F 0.5 °F 78% 30.07 in 10.0 mi NW 13.8 mph - N/A   Scattered Clouds
8:35 AM 6.1 °F -11.6 °F 0.5 °F 78% 30.08 in 10.0 mi NW 15.0 mph 19.6 mph N/A   Clear
8:55 AM 6.4 °F -9.8 °F 0.9 °F 78% 30.09 in 10.0 mi NW 12.7 mph - N/A   Clear
9:15 AM 7.2 °F -10.2 °F 1.2 °F 77% 30.10 in 10.0 mi NW 15.0 mph 21.9 mph N/A   Clear
9:35 AM 7.7 °F -10.7 °F 1.6 °F 76% 30.10 in 10.0 mi NNW 17.3 mph 20.7 mph N/A   Clear
9:55 AM 8.6 °F -10.5 °F 1.9 °F 74% 30.12 in 10.0 mi NW 19.6 mph 25.3 mph N/A   Clear
10:15 AM 9.1 °F -8.2 °F 2.1 °F 73% 30.12 in 10.0 mi NW 16.1 mph - N/A   Clear
10:35 AM 10.2 °F -6.9 °F 2.7 °F 72% 30.13 in 10.0 mi NW 16.1 mph - N/A   Clear
10:55 AM 10.9 °F -5.4 °F 2.7 °F 69% 30.13 in 10.0 mi NNW 15.0 mph 23.0 mph N/A   Clear
11:15 AM 11.7 °F -3.8 °F 3.0 °F 68% 30.14 in 10.0 mi NNW 13.8 mph 18.4 mph N/A   Clear
11:35 AM 12.0 °F -4.0 °F 3.0 °F 67% 30.14 in 10.0 mi NNW 15.0 mph - N/A   Clear
11:55 AM 12.4 °F -2.3 °F 2.8 °F 66% 30.13 in 10.0 mi NNW 12.7 mph - N/A   Clear
12:15 PM 13.6 °F -0.7 °F 3.6 °F 64% 30.13 in 10.0 mi NNW 12.7 mph 24.2 mph N/A   Clear
12:35 PM 13.8 °F -3.2 °F 3.2 °F 63% 30.13 in 10.0 mi NNW 18.4 mph - N/A   Clear
12:55 PM 14.5 °F -0.7 °F 3.7 °F 62% 30.12 in 10.0 mi NW 15.0 mph - N/A   Clear
1:15 PM 14.9 °F -1.3 °F 4.1 °F 62% 30.13 in 10.0 mi NW 17.3 mph 20.7 mph N/A   Clear
1:35 PM 15.4 °F -1.6 °F 4.5 °F 62% 30.14 in 10.0 mi NW 19.6 mph - N/A   Scattered Clouds
1:55 PM 15.8 °F -0.2 °F 4.8 °F 62% 30.14 in 10.0 mi NW 17.3 mph - N/A   Clear
2:15 PM 15.8 °F -0.2 °F 5.0 °F 62% 30.14 in 10.0 mi NNW 17.3 mph 20.7 mph N/A   Scattered Clouds
2:35 PM 16.0 °F 2.3 °F 5.0 °F 62% 30.14 in 10.0 mi NW 12.7 mph - N/A   Clear
2:55 PM 15.8 °F 0.9 °F 4.8 °F 62% 30.14 in 10.0 mi North 15.0 mph - N/A   Clear
3:15 PM 15.1 °F 1.1 °F 5.0 °F 64% 30.16 in 10.0 mi NNW 12.7 mph - N/A   Clear
3:35 PM 14.4 °F 0.2 °F 4.1 °F 64% 30.16 in 10.0 mi NNW 12.7 mph - N/A   Clear
3:55 PM 14.0 °F 2.0 °F 3.9 °F 64% 30.16 in 10.0 mi NNW 9.2 mph - N/A   Clear
4:15 PM 13.5 °F -2.1 °F 3.7 °F 65% 30.17 in 10.0 mi NNW 15.0 mph - N/A   Clear
4:35 PM 12.6 °F -0.6 °F 3.7 °F 68% 30.18 in 10.0 mi North 10.4 mph - N/A   Clear
4:55 PM 11.8 °F -1.5 °F 3.4 °F 69% 30.19 in 10.0 mi North 10.4 mph - N/A   Mostly Cloudy
5:15 PM 10.8 °F -1.1 °F 3.0 °F 71% 30.21 in 10.0 mi NNW 8.1 mph - N/A   Mostly Cloudy
5:35 PM 10.2 °F -2.7 °F 3.0 °F 73% 30.23 in 10.0 mi NW 9.2 mph - N/A   Mostly Cloudy
5:55 PM 9.5 °F -4.4 °F 2.5 °F 73% 30.24 in 10.0 mi NW 10.4 mph - N/A   Overcast
6:15 PM 9.5 °F -4.4 °F 2.8 °F 74% 30.25 in 10.0 mi NW 10.4 mph - N/A   Scattered Clouds
6:35 PM 9.7 °F -3.3 °F 2.7 °F 73% 30.26 in 10.0 mi NW 9.2 mph - N/A   Mostly Cloudy
6:55 PM 9.0 °F -7.3 °F 1.8 °F 73% 30.27 in 10.0 mi NNW 13.8 mph - N/A   Overcast
7:15 PM 8.6 °F -7.7 °F 1.2 °F 72% 30.27 in 10.0 mi NNW 13.8 mph - N/A   Mostly Cloudy
7:35 PM 8.2 °F -8.2 °F 0.5 °F 71% 30.29 in 10.0 mi NNW 13.8 mph - N/A   Mostly Cloudy
7:55 PM 7.5 °F -9.7 °F 0.5 °F 73% 30.30 in 10.0 mi NW 15.0 mph - N/A   Overcast
8:15 PM 6.8 °F -10.7 °F -0.8 °F 71% 30.30 in 10.0 mi NNW 15.0 mph 21.9 mph N/A   Overcast
8:35 PM 5.7 °F -11.4 °F -0.8 °F 75% 30.32 in 10.0 mi NNW 13.8 mph - N/A   Scattered Clouds
8:55 PM 5.0 °F -11.6 °F -1.3 °F 75% 30.31 in 10.0 mi NNW 12.7 mph - N/A   Scattered Clouds
9:15 PM 5.0 °F -8.1 °F -1.3 °F 75% 30.32 in 10.0 mi NNW 8.1 mph - N/A   Mostly Cloudy
9:35 PM 5.0 °F -12.3 °F -1.3 °F 75% 30.33 in 10.0 mi NW 13.8 mph 19.6 mph N/A   Mostly Cloudy
9:55 PM 4.5 °F -11.5 °F -1.7 °F 76% 30.34 in 10.0 mi NW 11.5 mph - N/A   Mostly Cloudy
10:15 PM 3.9 °F -13.0 °F -2.0 °F 76% 30.34 in 10.0 mi NNW 12.7 mph 20.7 mph N/A   Scattered Clouds
10:35 PM 3.9 °F -15.6 °F -2.0 °F 76% 30.35 in 10.0 mi NNW 17.3 mph 21.9 mph N/A   Mostly Cloudy
10:55 PM 3.7 °F -13.2 °F -2.0 °F 77% 30.36 in 10.0 mi NW 12.7 mph - N/A   Overcast
11:15 PM 3.6 °F -16.6 °F -2.4 °F 76% 30.37 in 10.0 mi NW 18.4 mph 23.0 mph N/A   Overcast
11:35 PM 3.0 °F -15.5 °F -3.1 °F 76% 30.38 in 10.0 mi NNW 15.0 mph 20.7 mph N/A   Overcast
11:55 PM 2.7 °F -15.3 °F -3.6 °F 75% 30.38 in 10.0 mi NW 13.8 mph - N/A   Overcast